Regional Weather Roundup
Issued by NWS

Home | Current Version | Previous Version | Graphics & Text | Print | Product List | Glossary Off
Versions: 1 2 3 4 5 6 7 8 9 10 11 12 13 14 15 16 17 18 19 20 21 22 23 24 25 26 27 28 29 30 31 32 33 34 35 36 37 38 39 40 41 42 43 44 45 46 47 48 49 50

312
ASUS43 KMKX 042011
RWRWI

WISCONSIN REGIONAL WEATHER ROUNDUP
NATIONAL WEATHER SERVICE MILWAUKEE/SULLIVAN WI
300 PM CDT WED MAY 04 2016

NOTE: "FAIR" INDICATES FEW OR NO CLOUDS BELOW 12,000 FEET WITH NO
SIGNIFICANT WEATHER AND/OR OBSTRUCTIONS TO VISIBILITY.

WIZ001-002-006>008-014>016-023>028-042100-
NORTHWEST WISCONSIN

CITY           SKY/WX    TMP DP  RH WIND       PRES   REMARKS
SUPERIOR ARPT  SUNNY     50  32  49 NE9       29.98S
ASHLAND        SUNNY     54  32  43 NE14      29.99R
HAYWARD        SUNNY     59  17  19 N15G33    29.94S
SIREN          SUNNY     63  19  18 NE16G23   29.93F
CUMBERLAND     SUNNY     59  19  21 N13G24    29.93S
RICE LAKE      SUNNY     62  18  18 N20G26    29.94R
CHETEK         SUNNY     60  26  26 N9G23     29.92S
LADYSMITH      SUNNY     59  25  27 NW21G26   29.93S
EAU CLAIRE     SUNNY     62  24  23 NW17G24   29.90S
MENOMONIE      SUNNY     65  27  24 N15G21    29.91S
NEW RICHMOND   SUNNY     64  22  19 N21G26    29.94R
OSCEOLA        SUNNY     64  24  22 N10G22    29.96S
$$

WIZ003>005-009-010-017-018-042100-
NORTH CENTRAL WISCONSIN

CITY           SKY/WX    TMP DP  RH WIND       PRES   REMARKS
MANITOWISH WTR PTSUNNY   46  32  57 N13G18    29.94R
ARBOR VITAE    CLOUDY    48  33  55 N13       29.93S
WOODRUFF       CLOUDY    48  33  55 N13       29.93S
RHINELANDER    PTSUNNY   48  31  51 N15G24    29.91S
EAGLE RIVER    PTSUNNY   45  30  55 N16       29.91S
LAND O LAKES   CLOUDY    44  32  63 N15       29.93S
PHILLIPS       SUNNY     51  28  40 N12G23    29.92R
TOMAHAWK       PTSUNNY   50  31  47 N13G24    29.91R
MEDFORD        SUNNY     56  27  33 N15G23    29.88R
MERRILL        PTSUNNY   55  32  41 N10G28    29.88R
$$

WIZ029-030-035-036-043>047-042100-
CENTRAL WISCONSIN

CITY           SKY/WX    TMP DP  RH WIND       PRES   REMARKS
WAUSAU         MOSUNNY   59  30  33 N17G26    29.84R
MOSINEE        MOSUNNY   57  28  33 N17G24    29.86S
MARSHFIELD     SUNNY     60  23  24 N22G31    29.85S
STEVENS POINT  PTSUNNY   57  28  33 NW14G30   29.84S
WAUPACA        MOSUNNY   60  33  36 NW20G25   29.83S
WAUTOMA        CLOUDY    58  30  34 N17G25    29.82S
WISC RAPIDS    SUNNY     62  22  21 N18G29    29.85F
CAMP DOUGLAS   MOSUNNY   63  32  31 N18G30    29.84F
$$

WIZ011>013-019>022-031-037>040-048>050-042100-
NORTHEAST WISCONSIN

CITY           SKY/WX    TMP DP  RH WIND       PRES   REMARKS
ANTIGO         PTSUNNY   47  33  58 N21G26    29.88R
SHAWANO        PTSUNNY   56  34  43 N13G23    29.84S
OCONTO         CLOUDY    50  34  53 N15G22    29.83R
STURGEON BAY   MOSUNNY   46  34  61 N21G30    29.85S
GREEN BAY      CLOUDY    53  37  54 N13G25    29.82S
MANITOWOC      CLOUDY    49  36  61 N18G24    29.81S
APPLETON       PTSUNNY   54  32  43 N15G171   29.81S
CLINTONVILLE   CLOUDY    55  32  41 N22G31    29.83S
OSHKOSH        CLOUDY    54  35  48 N18G28    29.81S
$$

WIZ032>034-041-042-053>061-042100-
SOUTHWEST WISCONSIN

CITY           SKY/WX    TMP DP  RH WIND       PRES   REMARKS
LA CROSSE      MOSUNNY   65  31  28 N22G31    29.87F
SPARTA         SUNNY     61  28  28 N20G25    29.87S
VIROQUA        MOSUNNY   60  31  33 NW23G29   29.87S
BOSCOBEL       PTSUNNY   63  30  28 N18G26    29.85F
PRAIRIE DU CHI MOSUNNY   63  29  28 NW16G25   29.86F
PLATTEVILLE    MOSUNNY   61  33  34 N21G31    29.84S
$$

WIZ056-057-062-063-064-067-068-042100-
SOUTH CENTRAL WISCONSIN

CITY           SKY/WX    TMP DP  RH WIND       PRES   REMARKS
REEDSBURG      MOSUNNY   60  32  34 N16       29.83S
BARABOO/DELLS  MOSUNNY   60  24  25 NW20G28   29.82S
LONE ROCK      SUNNY     63  31  30 NW15G25   29.84F
MINERAL POINT  MOSUNNY   61  28  29 NW20G28   29.83S
MADISON        PTSUNNY   56  32  40 N15G24    29.81S
MIDDLETON      PTSUNNY   60  34  37 N18G24    29.82S
WATERTOWN      CLOUDY    53  37  54 N16       29.80F
MONROE         PTSUNNY   57  32  38 N18G26    29.81S
JANESVILLE     CLOUDY    55  36  47 VRB9      29.80S
$$

WIZ051-052-058>065-066-070>072-042100-
SOUTHEAST WISCONSIN

CITY           SKY/WX    TMP DP  RH WIND       PRES   REMARKS
MILWAUKEE      CLOUDY    46  37  71 N12       29.80S
WAUKESHA       CLOUDY    48  34  57 NW21G28   29.81F
MILWAUKEE/TIMM CLOUDY    48  34  57 MISG      29.81S
RACINE         CLOUDY    45  36  70 N14       29.82S
BURLINGTON     CLOUDY    48  35  60 N15G24    29.80F
KENOSHA        CLOUDY    47  38  71 N8        29.80S
FOND DU LAC    CLOUDY    53  36  52 N18       29.82S
SHEBOYGAN      CLOUDY    50  37  61 N15G22    29.80S
WEST BEND      CLOUDY    50  34  53 N14G20    29.80S
JUNEAU         CLOUDY    52  36  54 N18       29.82S
$$

LSZ147-162-042100-
LAKE SUPERIOR

STATION/POSITION TIME  TEMP    WIND        PRES    WAVE
                       AIR SEA DIR/SP/G            HT/PER
                 (UTC) (F)     (DEG/KT/KT) (MB)    (FT/S)
W MID LAKE BUOY  1950   39 37  220/  4/  6 1016.3F   2/ 5
DEVILS ISLAND    2000   46     130/  7/  9 1015.8F
SAXON HARBOR     1940   45      60/ 10/ 11 1015.6S
$$

LMZ867-665-643>646-042100-
LAKE MICHIGAN

STATION/POSITION TIME  TEMP    WIND        PRES    WAVE
                       AIR SEA DIR/SP/G            HT/PER
                 (UTC) (F)     (DEG/KT/KT) (MB)    (FT/S)
CHAMBERS ISLAND  1900   44     350/ 18/ 22 1010.5
N MID LAKE BUOY  1950   41 39  330/ 17/ 21 1009.4R   3/ 5
NORTHPORT PIER   2004   41     340/ 24     1010.8R
ALGOMA LAKESHORE 1900          360/ 16/ 22   N/A
KEWAUNEE LAKESHO 1900   47      10/ 14/ 20 1008.9R
SHEBOYGAN LAKESH 2000   47      10/ 18/ 20 1010.0R
PORT WASHINGTON  1900   50     360/ 10/ 15 1010.2
S MID LAKE BUOY  1950   41 40  360/ 21/ 25 1007.7R   8/ 8
KENOSHA   LAKESH 2000   45      10/ 13/ 15 1009.5R
$$

TC  - TEMPERATURE IN CELSIUS
VSB - VISIBILITY IN STATUTE MILES
WCI - WIND CHILL INDEX
HX  - HEAT INDEX





USA.gov is the U.S. government's official web portal to all federal, state and local government web resources and services.